Terug naar catalogus

SL-14 R/B

ActiefPO
NORAD 17567·ROCKET BODY·🇷🇺 Russia

Gelanceerd Mar 3, 1987 vanaf Plesetsk Cosmodrome

Loading…

Volgende Passages (komende 24 uur)

TLE

VersSource: Space-Track

Epoch: Sep 14, 2026, 11:47 UTC

1 17567U 87024B   26257.49113197  .00000272  00000-0  28131-4 0  9994
2 17567  82.5248 275.3146 0018126   0.5344 359.5888 14.86265437116177

Volg SL-14 R/B in realtime met AllMySat

Download on the App Store